Radiation Dose at Monitoring Post of Fukushima Daini Nuclear Power Station
Date,Time,MP-1(microSv/h),MP-2(microSv/h),MP-3(microSv/h),MP-4(microSv/h),MP-5(microSv/h),MP-6(microSv/h),MP-7(microSv/h),Wind Direction,Wind Velocity(m/s),Rain
2020/10/13,00:00,0.169,0.152,0.247,0.234,0.239,0.133,0.082,northwest,1.7,No
2020/10/13,00:10,0.169,0.152,0.245,0.234,0.238,0.132,0.081,northwest,2.2,No
2020/10/13,00:20,0.170,0.152,0.247,0.234,0.240,0.132,0.082,northwest,2.5,No
2020/10/13,00:30,0.170,0.152,0.246,0.234,0.237,0.132,0.081,northwest,2.7,No
2020/10/13,00:40,0.171,0.153,0.248,0.234,0.240,0.133,0.083,northwest,2.3,No
2020/10/13,00:50,0.171,0.152,0.247,0.235,0.238,0.133,0.082,west-northwest,1.6,No
2020/10/13,01:00,0.170,0.152,0.248,0.233,0.240,0.134,0.082,west,0.7,No
2020/10/13,01:10,0.170,0.154,0.247,0.235,0.239,0.133,0.083,west,1.0,No
2020/10/13,01:20,0.169,0.152,0.247,0.232,0.240,0.132,0.081,west,1.3,No
2020/10/13,01:30,0.171,0.153,0.246,0.235,0.240,0.133,0.083,west-northwest,0.7,No
2020/10/13,01:40,0.170,0.151,0.246,0.234,0.238,0.133,0.082,north,1.0,No
2020/10/13,01:50,0.171,0.154,0.248,0.234,0.242,0.133,0.082,northwest,2.5,No
2020/10/13,02:00,0.171,0.151,0.247,0.234,0.239,0.133,0.082,northwest,3.2,No
2020/10/13,02:10,0.170,0.152,0.248,0.234,0.239,0.134,0.082,northwest,3.6,No
2020/10/13,02:20,0.170,0.151,0.246,0.234,0.239,0.133,0.082,northwest,3.4,No
2020/10/13,02:30,0.169,0.153,0.247,0.234,0.239,0.132,0.081,north-northwest,2.4,No
2020/10/13,02:40,0.171,0.151,0.247,0.235,0.241,0.133,0.083,north,2.7,No
2020/10/13,02:50,0.170,0.152,0.247,0.234,0.238,0.131,0.082,north,2.5,No
2020/10/13,03:00,0.171,0.153,0.247,0.235,0.241,0.133,0.082,north-northwest,3.1,No
2020/10/13,03:10,0.171,0.152,0.247,0.232,0.240,0.133,0.082,north,2.0,No
2020/10/13,03:20,0.172,0.152,0.248,0.235,0.239,0.134,0.082,north-northeast,1.7,No
2020/10/13,03:30,0.171,0.152,0.247,0.234,0.241,0.133,0.082,north-northeast,1.9,No
2020/10/13,03:40,0.171,0.153,0.248,0.235,0.240,0.134,0.082,north-northeast,2.3,No
2020/10/13,03:50,0.171,0.152,0.246,0.235,0.241,0.133,0.083,north,3.3,No
2020/10/13,04:00,0.169,0.152,0.247,0.234,0.237,0.133,0.082,north,3.0,No
2020/10/13,04:10,0.171,0.151,0.247,0.235,0.241,0.134,0.082,north,2.4,No
2020/10/13,04:20,0.170,0.154,0.249,0.235,0.241,0.132,0.082,north-northwest,2.9,No
2020/10/13,04:30,0.170,0.152,0.246,0.237,0.240,0.134,0.083,north,1.5,No
2020/10/13,04:40,0.170,0.153,0.247,0.234,0.242,0.134,0.081,north-northwest,1.4,No
2020/10/13,04:50,0.169,0.151,0.247,0.236,0.239,0.133,0.081,north,1.5,No
2020/10/13,05:00,0.171,0.152,0.247,0.234,0.241,0.133,0.082,north-northwest,2.0,No
2020/10/13,05:10,0.170,0.152,0.247,0.235,0.239,0.132,0.081,northwest,2.4,No
2020/10/13,05:20,0.171,0.154,0.246,0.235,0.241,0.132,0.082,north-northwest,2.1,No
2020/10/13,05:30,0.170,0.152,0.248,0.236,0.240,0.133,0.082,north-northwest,2.0,No
2020/10/13,05:40,0.171,0.153,0.247,0.235,0.240,0.133,0.082,north,1.1,No
2020/10/13,05:50,0.170,0.151,0.248,0.236,0.239,0.133,0.082,north-northwest,0.9,No
2020/10/13,06:00,0.171,0.152,0.247,0.236,0.239,0.133,0.081,north,2.2,No
2020/10/13,06:10,0.170,0.151,0.247,0.235,0.241,0.133,0.082,north-northwest,3.1,No
2020/10/13,06:20,0.170,0.152,0.246,0.235,0.239,0.133,0.082,north-northwest,2.6,No
2020/10/13,06:30,0.171,0.152,0.248,0.234,0.242,0.134,0.082,north-northwest,2.9,No
2020/10/13,06:40,0.169,0.152,0.246,0.236,0.240,0.132,0.083,north-northwest,2.1,No
2020/10/13,06:50,0.171,0.152,0.248,0.234,0.241,0.133,0.081,north,2.1,No
2020/10/13,07:00,0.170,0.152,0.246,0.236,0.241,0.132,0.082,north,2.3,No
2020/10/13,07:10,0.170,0.153,0.245,0.234,0.238,0.132,0.082,north,3.0,No
2020/10/13,07:20,0.169,0.151,0.247,0.235,0.242,0.134,0.082,north,3.8,No
2020/10/13,07:30,0.169,0.152,0.244,0.235,0.238,0.132,0.081,north,4.1,No
2020/10/13,07:40,0.170,0.150,0.247,0.232,0.239,0.133,0.081,north,3.6,No
2020/10/13,07:50,0.169,0.151,0.245,0.233,0.240,0.132,0.081,north,3.9,No
2020/10/13,08:00,0.171,0.152,0.246,0.233,0.240,0.131,0.080,north,3.6,No
2020/10/13,08:10,0.170,0.151,0.246,0.231,0.238,0.132,0.082,north-northwest,4.5,No
2020/10/13,08:20,0.168,0.149,0.244,0.231,0.240,0.133,0.080,north-northwest,4.5,No
2020/10/13,08:30,0.171,0.152,0.244,0.234,0.238,0.131,0.080,north,3.8,No
2020/10/13,08:40,0.170,0.151,0.247,0.233,0.236,0.132,0.080,north,4.7,No
2020/10/13,08:50,0.169,0.150,0.244,0.232,0.240,0.133,0.081,north,5.6,No
2020/10/13,09:00,0.170,0.151,0.246,0.234,0.239,0.132,0.081,north,4.4,No
2020/10/13,09:10,0.169,0.151,0.247,0.234,0.237,0.132,0.081,north,5.2,No
2020/10/13,09:20,0.168,0.151,0.245,0.232,0.239,0.132,0.081,north,3.9,No
2020/10/13,09:30,0.172,0.153,0.245,0.235,0.240,0.131,0.081,north,4.8,No
2020/10/13,09:40,0.169,0.151,0.248,0.234,0.238,0.131,0.081,north,5.5,No
2020/10/13,09:50,0.169,0.151,0.245,0.233,0.239,0.133,0.081,north,5.4,No
2020/10/13,10:00,0.170,0.152,0.248,0.236,0.240,0.132,0.082,north,6.1,No
2020/10/13,10:10,0.169,0.151,0.247,0.235,0.238,0.132,0.080,north,5.4,No
2020/10/13,10:20,0.171,0.151,0.245,0.232,0.238,0.133,0.080,north,8.2,No
2020/10/13,10:30,0.170,0.152,0.247,0.234,0.240,0.132,0.080,north,6.6,No
2020/10/13,10:40,0.168,0.151,0.247,0.235,0.240,0.131,0.081,north,6.8,No
2020/10/13,10:50,0.171,0.151,0.245,0.233,0.237,0.131,0.080,north-northeast,5.8,No
2020/10/13,11:00,0.170,0.153,0.245,0.231,0.237,0.133,0.080,north,5.2,No
2020/10/13,11:10,0.169,0.151,0.246,0.234,0.241,0.132,0.081,north,5.6,No
2020/10/13,11:20,0.170,0.150,0.246,0.235,0.239,0.132,0.081,north,5.6,No
2020/10/13,11:30,0.171,0.150,0.246,0.234,0.238,0.131,0.080,north,4.8,No
2020/10/13,11:40,0.169,0.150,0.247,0.234,0.237,0.133,0.081,north,3.6,No
2020/10/13,11:50,0.171,0.150,0.247,0.235,0.240,0.132,0.080,north,4.0,No
2020/10/13,12:00,0.170,0.151,0.247,0.234,0.240,0.132,0.080,north,3.4,No
2020/10/13,12:10,0.169,0.151,0.249,0.234,0.237,0.133,0.080,north,5.0,No
2020/10/13,12:20,0.169,0.151,0.245,0.235,0.238,0.131,0.080,north,5.4,No
2020/10/13,12:30,0.170,0.152,0.245,0.236,0.240,0.131,0.080,north,4.7,No
2020/10/13,12:40,0.169,0.151,0.248,0.233,0.239,0.132,0.080,north,4.4,No
2020/10/13,12:50,0.170,0.150,0.248,0.234,0.238,0.133,0.080,north,4.4,No
2020/10/13,13:00,0.170,0.151,0.245,0.236,0.240,0.132,0.081,north,4.6,No
2020/10/13,13:10,0.169,0.152,0.249,0.233,0.241,0.132,0.080,north,4.2,No
2020/10/13,13:20,0.169,0.151,0.247,0.234,0.238,0.133,0.080,north,4.1,No
2020/10/13,13:30,0.171,0.150,0.246,0.235,0.238,0.133,0.081,north,3.8,No
2020/10/13,13:40,0.170,0.151,0.244,0.236,0.238,0.132,0.081,north,4.7,No
2020/10/13,13:50,0.169,0.152,0.246,0.234,0.237,0.132,0.080,north,3.9,No
2020/10/13,14:00,0.171,0.151,0.246,0.233,0.241,0.132,0.080,north,4.1,No
2020/10/13,14:10,0.171,0.151,0.247,0.233,0.239,0.133,0.081,north,4.4,No
2020/10/13,14:20,0.169,0.151,0.247,0.236,0.238,0.132,0.081,north,3.4,No
2020/10/13,14:30,0.170,0.152,0.248,0.235,0.237,0.131,0.080,north-northeast,3.1,No
2020/10/13,14:40,0.170,0.151,0.246,0.233,0.240,0.132,0.081,north-northeast,3.5,No
2020/10/13,14:50,0.169,0.153,0.245,0.235,0.240,0.133,0.081,north,3.6,No
2020/10/13,15:00,0.168,0.151,0.249,0.236,0.238,0.133,0.080,north,4.1,No
2020/10/13,15:10,0.172,0.151,0.247,0.234,0.239,0.133,0.080,north,4.0,No
2020/10/13,15:20,0.170,0.152,0.244,0.235,0.240,0.132,0.081,north,3.2,No
2020/10/13,15:30,0.169,0.150,0.249,0.237,0.238,0.133,0.081,north-northwest,3.3,No
2020/10/13,15:40,0.170,0.151,0.247,0.234,0.237,0.132,0.080,north-northwest,3.2,No
2020/10/13,15:50,0.170,0.152,0.246,0.235,0.242,0.132,0.081,north-northwest,4.0,No
2020/10/13,16:00,0.169,0.151,0.248,0.236,0.240,0.133,0.081,north-northwest,6.0,No
2020/10/13,16:10,0.171,0.152,0.246,0.233,0.238,0.132,0.081,northwest,6.0,No
2020/10/13,16:20,0.170,0.152,0.249,0.237,0.241,0.132,0.081,north-northwest,5.1,No
2020/10/13,16:30,0.170,0.151,0.246,0.235,0.239,0.133,0.081,northwest,3.8,No
2020/10/13,16:40,0.172,0.152,0.247,0.236,0.240,0.132,0.081,north-northwest,4.0,No
2020/10/13,16:50,0.171,0.151,0.249,0.236,0.241,0.133,0.081,north-northwest,6.7,No
2020/10/13,17:00,0.172,0.152,0.247,0.235,0.239,0.132,0.081,north-northwest,7.0,No
2020/10/13,17:10,0.171,0.151,0.248,0.237,0.240,0.133,0.081,north-northwest,5.9,No
2020/10/13,17:20,0.170,0.152,0.247,0.234,0.239,0.133,0.081,north-northwest,5.6,No
2020/10/13,17:30,0.172,0.152,0.249,0.236,0.242,0.132,0.081,north-northwest,4.6,No
2020/10/13,17:40,0.170,0.151,0.247,0.235,0.239,0.132,0.081,north-northwest,4.4,No
2020/10/13,17:50,0.172,0.152,0.249,0.238,0.240,0.133,0.081,north-northwest,4.2,No
2020/10/13,18:00,0.170,0.151,0.248,0.235,0.240,0.133,0.080,north-northwest,4.3,No
2020/10/13,18:10,0.171,0.153,0.250,0.237,0.239,0.133,0.082,north-northwest,3.9,No
2020/10/13,18:20,0.170,0.153,0.247,0.235,0.242,0.134,0.081,northwest,3.3,No
2020/10/13,18:30,0.171,0.152,0.249,0.238,0.239,0.132,0.081,northwest,3.8,No
2020/10/13,18:40,0.171,0.153,0.247,0.236,0.241,0.134,0.080,northwest,4.2,No
2020/10/13,18:50,0.172,0.152,0.250,0.236,0.238,0.134,0.081,northwest,4.5,No
2020/10/13,19:00,0.171,0.151,0.248,0.235,0.241,0.134,0.081,north-northwest,4.5,No
2020/10/13,19:10,0.171,0.151,0.249,0.238,0.238,0.133,0.082,north-northwest,4.7,No
2020/10/13,19:20,0.171,0.152,0.247,0.235,0.241,0.133,0.082,north-northwest,4.6,No
2020/10/13,19:30,0.169,0.152,0.250,0.237,0.240,0.133,0.081,north-northwest,4.3,No
2020/10/13,19:40,0.171,0.152,0.247,0.235,0.240,0.133,0.082,northwest,4.3,No
2020/10/13,19:50,0.171,0.152,0.249,0.237,0.241,0.134,0.081,north-northwest,5.0,No
2020/10/13,20:00,0.172,0.152,0.248,0.236,0.240,0.132,0.082,north-northwest,5.5,No
2020/10/13,20:10,0.169,0.153,0.249,0.237,0.241,0.133,0.082,north-northwest,5.8,No
2020/10/13,20:20,0.173,0.152,0.249,0.236,0.239,0.133,0.081,north-northwest,6.1,No
2020/10/13,20:30,0.171,0.153,0.248,0.236,0.241,0.132,0.081,northwest,6.3,No
2020/10/13,20:40,0.171,0.153,0.248,0.235,0.239,0.133,0.082,northwest,7.0,No
2020/10/13,20:50,0.171,0.153,0.249,0.237,0.241,0.133,0.080,northwest,6.5,No
2020/10/13,21:00,0.171,0.152,0.249,0.236,0.239,0.133,0.082,northwest,7.3,No
2020/10/13,21:10,0.171,0.152,0.249,0.238,0.241,0.133,0.081,northwest,7.5,No
2020/10/13,21:20,0.171,0.153,0.249,0.234,0.239,0.133,0.081,northwest,7.3,No
2020/10/13,21:30,0.172,0.152,0.248,0.237,0.241,0.133,0.081,northwest,7.5,No
2020/10/13,21:40,0.171,0.151,0.248,0.235,0.238,0.133,0.082,northwest,8.1,No
2020/10/13,21:50,0.171,0.152,0.249,0.236,0.241,0.133,0.080,northwest,7.9,No
2020/10/13,22:00,0.172,0.153,0.248,0.235,0.240,0.133,0.081,northwest,7.4,No
2020/10/13,22:10,0.171,0.152,0.249,0.236,0.241,0.134,0.081,northwest,7.5,No
2020/10/13,22:20,0.171,0.153,0.248,0.236,0.239,0.133,0.081,northwest,6.9,No
2020/10/13,22:30,0.172,0.153,0.249,0.237,0.241,0.134,0.081,northwest,6.0,No
2020/10/13,22:40,0.171,0.153,0.249,0.235,0.239,0.134,0.081,northwest,6.4,No
2020/10/13,22:50,0.172,0.151,0.247,0.237,0.241,0.133,0.081,northwest,6.9,No
2020/10/13,23:00,0.171,0.152,0.248,0.235,0.240,0.133,0.081,northwest,7.2,No
2020/10/13,23:10,0.173,0.153,0.248,0.236,0.239,0.133,0.081,northwest,6.5,No
2020/10/13,23:20,0.170,0.152,0.250,0.235,0.241,0.133,0.081,northwest,5.6,No
2020/10/13,23:30,0.173,0.152,0.248,0.237,0.239,0.133,0.081,northwest,5.6,No
2020/10/13,23:40,0.171,0.153,0.249,0.235,0.241,0.133,0.081,northwest,4.9,No
2020/10/13,23:50,0.172,0.152,0.249,0.236,0.239,0.134,0.081,northwest,5.7,No
